TimeCDT,TemperatureF,Dew PointF,Humidity,Sea Level PressureIn,VisibilityMPH,Wind Direction,Wind SpeedMPH,Gust SpeedMPH,PrecipitationIn,Events,Conditions,WindDirDegrees,DateUTC
12:53 AM,55.9,41.0,57,29.98,10.0,North,17.3,25.3,N/A,,Clear,10,2012-11-03 05:53:00
1:53 AM,54.0,41.0,62,29.99,10.0,North,17.3,26.5,N/A,,Clear,10,2012-11-03 06:53:00
2:53 AM,52.0,39.9,63,30.00,10.0,North,18.4,-,N/A,,Clear,10,2012-11-03 07:53:00
3:53 AM,50.0,39.0,66,30.02,10.0,North,18.4,-,N/A,,Clear,10,2012-11-03 08:53:00
4:53 AM,48.0,37.0,66,30.04,10.0,North,20.7,28.8,N/A,,Clear,10,2012-11-03 09:53:00
5:53 AM,46.0,37.0,71,30.08,9.0,North,20.7,26.5,N/A,,Clear,10,2012-11-03 10:53:00
6:53 AM,44.1,36.0,73,30.11,9.0,North,19.6,25.3,N/A,,Clear,10,2012-11-03 11:53:00
7:53 AM,43.0,36.0,76,30.12,9.0,North,23.0,27.6,N/A,,Clear,10,2012-11-03 12:53:00
8:53 AM,44.1,35.1,71,30.17,9.0,North,17.3,25.3,N/A,,Clear,360,2012-11-03 13:53:00
9:53 AM,46.9,34.0,61,30.19,10.0,North,19.6,26.5,N/A,,Clear,10,2012-11-03 14:53:00
10:53 AM,51.1,34.0,52,30.19,10.0,North,16.1,-,N/A,,Clear,10,2012-11-03 15:53:00
11:53 AM,55.0,35.1,47,30.19,10.0,NNE,16.1,-,N/A,,Clear,20,2012-11-03 16:53:00
12:53 PM,57.9,34.0,41,30.18,10.0,NNE,15.0,-,N/A,,Clear,20,2012-11-03 17:53:00
1:53 PM,62.1,35.1,37,30.15,10.0,NNE,16.1,-,N/A,,Clear,20,2012-11-03 18:53:00
2:53 PM,64.0,34.0,33,30.14,10.0,NE,13.8,-,N/A,,Clear,40,2012-11-03 19:53:00
3:53 PM,64.0,32.0,30,30.13,10.0,NE,13.8,-,N/A,,Clear,50,2012-11-03 20:53:00
4:53 PM,63.0,30.9,30,30.13,10.0,NE,15.0,-,N/A,,Clear,50,2012-11-03 21:53:00
5:53 PM,62.1,32.0,32,30.15,10.0,NE,9.2,-,N/A,,Clear,40,2012-11-03 22:53:00
6:53 PM,55.9,32.0,40,30.16,10.0,NE,8.1,-,N/A,,Clear,40,2012-11-03 23:53:00
7:53 PM,52.0,32.0,47,30.19,10.0,NE,6.9,-,N/A,,Clear,40,2012-11-04 00:53:00
8:53 PM,48.9,32.0,52,30.19,10.0,NE,6.9,-,N/A,,Clear,40,2012-11-04 01:53:00
9:53 PM,46.0,32.0,58,30.19,10.0,NNE,6.9,-,N/A,,Clear,30,2012-11-04 02:53:00
10:53 PM,46.9,33.1,59,30.20,10.0,NNE,6.9,-,N/A,,Clear,20,2012-11-04 03:53:00
11:53 PM,46.0,33.1,61,30.19,10.0,North,6.9,-,N/A,,Clear,10,2012-11-04 04:53:00